Zurück zum Katalog

STARLINK-30225

AktivKommunikationVLEO
NORAD 57449·PAYLOAD·🇺🇸 United States

Gestartet Jul 24, 2023 von Cape Canaveral Space Force Station

Loading…

Nächste Überflüge (nächste 24 Stunden)

TLE

AktuellSource: CelesTrak SupGP

Epoche: Sep 15, 2026, 02:27 UTC

1 57449C 23105V   26258.10256944  .00001647  00000+0  59649-4 0  2586
2 57449  43.0013 273.4326 0001652 259.1742  23.6179 15.27570386    16

Verfolge STARLINK-30225 in Echtzeit mit AllMySat

Download on the App Store